Location: Unnamed
(51.8936°N, 11.0665°E)
Time: 17:02:31
(UTC+02:00)

UKube-1 - Pass Details

Date: 30 September 2021
Orbit: 611 x 617 km, 98.4° (Epoch: 28 October)

Event Time Altitude Azimuth Distance (km) Brightness Sun altitude
Rises 23:03:18 0° 8° (N) 2,894 ? -35.0°
Reaches altitude 10° 23:05:37 10° 360° (N) 1,985 ? -35.2°
Enters shadow 23:06:37 16° 352° (N) 1,626 ? -35.3°
